Location: Florence
(33.9745°N, 118.2481°W)
Time: 18:49:02
(UTC+00:00)

NOSS 3-3 (C) - Pass Details

Date: 23 March 2023
Orbit: 763 x 1448 km, 63.4° (Epoch: 31 May)

Event Time Altitude Azimuth Distance (km) Brightness Sun altitude
Exits shadow 12:18:21 31° 291° (WNW) 1,434 4.5 -20.2°
Maximum altitude 12:19:18 33° 311° (NW) 1,403 4.5 -20.0°
Drops below altitude 10° 12:24:46 10° 14° (NNE) 2,672 6.7 -18.9°
Sets 12:27:48 0° 24° (NNE) 3,734 7.6 -18.3°
